Air Force Academy, CO

2:54 AM MDT on September 23, 2019 (GMT -0600)
Usaf Academy

Weather History for KAFF - August, 2019

Change the Weather History Date:

Sunday, August 18, 2019

  Actual Average Record
Temperature  
Mean Temperature 69 °F -  
Max Temperature 90 °F 78 °F 90 °F (2019)
Min Temperature 48 °F 50 °F 44 °F (2008)
Cooling Degree Days 4    
Growing Degree Days 19 (Base 50)    
Moisture  
Dew Point 38 °F    
Average Humidity 32    
Maximum Humidity 74    
Minimum Humidity 11    
Precipitation  
Precipitation 0.00 in - - ()
Sea Level Pressure  
Sea Level Pressure 29.83 in    
Wind  
Wind Speed 10 mph (SE)    
Max Wind Speed 21 mph    
Max Gust Speed 29 mph    
Visibility 10 miles    
Events Rain    
Averages and records for this station are not official NWS values.
T = Trace of Precipitation, MM = Missing Value Source: NWS Daily Summary

Daily Weather History Graph

Daily Weather History Graph

Search for Another Location

Airport or City:

Astronomy

Aug. 18, 2019 Rise Set
Actual Time 6:15 AM MDT 7:50 PM MDT
Civil Twilight 5:46 AM MDT 8:18 PM MDT
Nautical Twilight 5:12 AM MDT 8:52 PM MDT
Astronomical Twilight 4:36 AM MDT 9:28 PM MDT
Moon 9:47 PM MDT (8/18) 9:01 AM MDT (8/18)
Length of Visible Light 14h 31m
Length of Day
13h 34m
Waning Gibbous, 91% of the Moon is Illuminated
Aug 18
Waning Gibbous
Aug 23
Last Quarter
Aug 30
New
Sep 5
First Quarter
Sep 13
Full

Hourly Weather History & Observations

Time (MDT) Temp. Dew Point Humidity Pressure Visibility Wind Dir Wind Speed Gust Speed Precip Events Conditions
12:58 AM 52.0 °F 41.4 °F 67% 29.82 in 10.0 mi North 8.1 mph - N/A   Clear
1:58 AM 50.5 °F 41.9 °F 72% 29.83 in 10.0 mi NNW 5.8 mph - N/A   Clear
2:58 AM 48.7 °F 40.8 °F 74% 29.83 in 10.0 mi North 10.4 mph - N/A   Clear
3:58 AM 49.6 °F 41.0 °F 72% 29.83 in 10.0 mi North 3.5 mph - N/A   Clear
4:58 AM 48.7 °F 40.1 °F 72% 29.83 in 10.0 mi North 8.1 mph - N/A   Clear
5:58 AM 48.6 °F 39.9 °F 72% 29.86 in 10.0 mi North 9.2 mph - N/A   Clear
6:58 AM 48.7 °F 40.5 °F 73% 29.90 in 10.0 mi North 9.2 mph - N/A   Clear
7:58 AM 58.8 °F 42.3 °F 54% 29.89 in 10.0 mi NNW 5.8 mph - N/A   Clear
8:58 AM 69.4 °F 46.0 °F 43% 29.89 in 10.0 mi Calm Calm - N/A   Clear
9:58 AM 74.5 °F 44.2 °F 34% 29.87 in 10.0 mi SSE 6.9 mph - N/A   Clear
10:58 AM 77.5 °F 43.7 °F 30% 29.89 in 10.0 mi SSE 11.5 mph - N/A   Clear
11:58 AM 82.2 °F 41.7 °F 24% 29.85 in 10.0 mi South 9.2 mph 19.6 mph N/A   Clear
12:20 PM 84.2 °F 41.0 °F 22% 29.84 in 10.0 mi SE 19.6 mph 27.6 mph N/A   Clear
12:53 PM 86.0 °F 39.2 °F 19% 29.83 in 10.0 mi SSE 16.1 mph 20.7 mph N/A   Light Drizzle
12:55 PM 86.0 °F 39.2 °F 19% 29.83 in 10.0 mi SSE 20.7 mph 26.5 mph N/A   Partly Cloudy
12:57 PM 86.0 °F 39.2 °F 19% 29.83 in 10.0 mi SSE 13.8 mph 26.5 mph N/A   Light Drizzle
12:58 PM 85.5 °F 38.5 °F 19% 29.83 in 10.0 mi SE 12.7 mph 26.5 mph 0.00 in   Light Drizzle
12:59 PM 86.0 °F 39.2 °F 19% 29.83 in 10.0 mi SE 13.8 mph 26.5 mph N/A   Partly Cloudy
1:00 PM 86.0 °F 37.4 °F 18% 29.83 in 10.0 mi SE 11.5 mph 26.5 mph N/A   Partly Cloudy
1:15 PM 86.0 °F 39.2 °F 19% 29.83 in 10.0 mi SE 13.8 mph 18.4 mph N/A Rain Light Rain
1:16 PM 86.0 °F 39.2 °F 19% 29.83 in 10.0 mi SE 13.8 mph 20.7 mph N/A   Clear
1:58 PM 87.3 °F 37.0 °F 17% 29.82 in 10.0 mi SE 16.1 mph 21.9 mph 0.00 in   Clear
2:58 PM 89.2 °F 30.0 °F 12% 29.79 in 10.0 mi SSE 16.1 mph 24.2 mph N/A   Clear
3:13 PM 89.6 °F 32.0 °F 13% 29.79 in 10.0 mi SSE 15.0 mph 25.3 mph N/A   Clear
3:22 PM 89.6 °F 30.2 °F 12% 29.78 in 10.0 mi SSW 11.5 mph 21.9 mph N/A   Clear
3:58 PM 90.5 °F 28.8 °F 11% 29.77 in 10.0 mi SE 16.1 mph 21.9 mph N/A   Clear
4:03 PM 89.6 °F 28.4 °F 11% 29.77 in 10.0 mi South 18.4 mph 26.5 mph N/A   Clear
4:14 PM 89.6 °F 28.4 °F 11% 29.77 in 10.0 mi SE 9.2 mph 26.5 mph N/A   Partly Cloudy
4:57 PM 90.0 °F 32.5 °F 13% 29.76 in 10.0 mi SSE 15.0 mph 28.8 mph N/A   Partly Cloudy
5:58 PM 88.5 °F 27.3 °F 11% 29.78 in 10.0 mi Variable 5.8 mph - N/A   Mostly Cloudy
6:58 PM 84.2 °F 29.8 °F 14% 29.81 in 10.0 mi SSE 10.4 mph - N/A   Scattered Clouds
7:58 PM 80.8 °F 30.4 °F 16% 29.81 in 10.0 mi SSE 13.8 mph - N/A   Partly Cloudy
8:58 PM 75.0 °F 40.6 °F 29% 29.86 in 10.0 mi SE 8.1 mph - N/A   Clear
9:58 PM 70.5 °F 45.0 °F 40% 29.88 in 10.0 mi East 11.5 mph - N/A   Clear
10:58 PM 70.7 °F 45.1 °F 40% 29.86 in 10.0 mi Calm Calm - N/A   Clear
11:58 PM 60.4 °F 46.0 °F 59% 29.88 in 10.0 mi North 5.8 mph - N/A   Clear